Regional Weather Roundup
Issued by NWS

Home | Current Version | Previous Version | Graphics & Text | Print | Product List | Glossary On
Versions: 1 2 3 4 5 6 7 8 9 10 11 12 13 14 15 16 17 18 19 20 21 22 23 24 25 26 27 28 29 30 31 32 33 34 35 36 37 38 39 40 41 42 43 44 45 46 47 48 49 50
000
ASUS45 KCYS 251110
RWRWY

WYOMING REGIONAL WEATHER ROUNDUP
NATIONAL WEATHER SERVICE CHEYENNE WY
500 AM MDT SAT MAR 25 2017

NOTE:  "FAIR" INDICATES FEW OR NO CLOUDS BELOW 12,000 FEET
WITH NO SIGNIFICANT WEATHER AND/OR OBSTRUCTIONS TO VISIBILITY.

WYZ001-251200-
YELLOWSTONE NATIONAL PARK

CITY           SKY/WX    TMP DP  RH WIND       PRES   REMARKS
LK YELLOWSTONE   N/A     30  30 100 CALM      30.03F
W YELLOWSTONE  NOT AVBL

$$
WYZ002>013-054>058-071-098>099-251200-
NORTHERN WYOMING

CITY           SKY/WX    TMP DP  RH WIND       PRES   REMARKS
JACKSON        CLOUDY    34  34 100 SW5       30.04S WCI  30
CODY           FAIR      47  26  44 W9        29.93S
GREYBULL       FAIR      42  34  73 CALM      29.90R
WORLAND        FAIR      39  36  89 CALM      29.90R
SHERIDAN       FAIR      42  35  76 CALM      29.86R
BUFFALO        FAIR      48  24  39 NW9       29.88R
GILLETTE       FAIR      44  30  57 S18       29.87S
HULETT         FAIR      46  28  49 S15       29.89S
NEWCASTLE      FAIR      41  25  52 SE16G23   29.96F

$$
WYZ014>020-022>026-101>103-251200-
CENTRAL WYOMING

CITY           SKY/WX    TMP DP  RH WIND       PRES   REMARKS
BIG PINEY      CLOUDY    31  29  92 N7        30.06S WCI  24
PINEDALE       CLOUDY    32  30  93 NW5       30.06S WCI  27
DUBOIS         CLOUDY    34  28  80 N9        29.98S WCI  26
LANDER         FAIR      41  25  53 N3        29.94S
RIVERTON       FAIR      40  29  64 W6        29.95S
CASPER         FAIR      44  25  47 SW10      29.96S
DOUGLAS        FAIR      35  27  72 SE6       29.95S WCI  30

$$
WYZ021-027>030-104>119-251200-
SOUTHERN WYOMING

CITY           SKY/WX    TMP DP  RH WIND       PRES   REMARKS
EVANSTON       FAIR      36  21  54 W9        30.03F WCI  29
KEMMERER         N/A     30  27  86 NW9       30.03F WCI  22
FORT BRIDGER   FAIR      35  29  79 S3        30.06F
ROCK SPRINGS   FAIR      37  29  72 SE3       30.04F
DIXON            N/A     36  24  63 SE6       30.12S WCI  31
RAWLINS        FAIR      41  24  51 SW9       30.05F
SARATOGA       FAIR      34  23  64 SE8       30.09S WCI  27
LARAMIE        FAIR      33  20  58 S6        30.05F WCI  28
CHEYENNE       FAIR      29  24  82 SW9       30.02F WCI  20
TORRINGTON     FAIR      29  25  85 E10       29.99F WCI  20
PINE BLUFFS    FAIR      23  21  93 SW6       30.05S WCI  16

$$



USA.gov is the U.S. government's official web portal to all federal, state and local government web resources and services.